Location: Lomagna
(45.6667°N, 9.3667°E)
Time: 01:40:35
(UTC+00:00)

Daily predictions for brighter satellites

Satellite Brightness Start Highest point End
(mag) Time Altitude Azimuth Time Altitude Azimuth Time Altitude Azimuth
Cosmos 2344 4.4 02:45:54 61° NNE 02:47:15 65° NE 02:59:58 10° SE
ATLAS 2AS CENTAUR R/B 4.0 02:52:20 39° NNE 02:52:20 39° NNE 02:56:54 10° NE
COSMOS 2455 4.3 03:06:03 33° ESE 03:06:03 33° ESE 03:11:18 10° NE
Lacrosse 5 4.0 03:33:29 19° NNE 03:33:29 19° NNE 03:35:09 10° NE
ATLAS 3B R/B 3.5 03:36:30 41° S 03:36:30 41° S 03:41:07 10° SSE
CZ-4C R/B 3.5 03:47:08 31° NNE 03:47:08 31° NNE 03:50:36 10° NNE
Cosmos 2184 Rocket 4.3 03:40:02 10° S 03:46:17 66° E 03:52:37 10° NNE
Cosmos 2278 Rocket 4.4 03:46:39 10° SSE 03:51:05 24° ESE 03:55:32 10° NE
USA 308 4.5 03:52:49 33° ENE 03:52:49 33° ENE 03:55:33 10° E
COSMO-SKYMED 1 3.9 03:55:08 10° SE 03:59:09 38° ENE 04:00:09 33° NE
Cosmos 1844 Rocket 3.6 04:02:42 37° N 04:02:42 37° N 04:06:13 10° NNE
Atlas Centaur 2 4.4 04:00:45 18° SSW 04:00:45 18° SSW 04:05:13 10° SSE
COSMOS 2406 4.1 04:02:25 29° N 04:05:01 47° ENE 04:10:33 10° SE
deb Chang Zheng 4 4.5 04:01:30 10° NNE 04:05:44 47° E 04:09:56 10° S
USA 305 3.3 04:16:57 60° ENE 04:16:57 60° ENE 04:20:49 10° ESE
ATLAS 5 CENTAUR R/B 1.7 04:17:17 62° ESE 04:17:17 62° ESE 04:21:40 10° NE
Cosmos 1689 Rocket 4.4 04:18:22 10° SE 04:19:51 23° ESE 04:19:51 23° ESE
Nadezhda 3 Rocket 4.0 04:16:24 10° N 04:22:42 82° E 04:28:53 10° S
USA 306 3.0 04:25:27 72° NE 04:25:27 72° NE 04:29:42 10° ESE
Cosmos 1048 Rocket 4.2 04:28:12 27° N 04:31:02 69° ENE 04:36:11 10° SSE
ADEOS 3.4 04:28:39 10° N 04:33:50 66° WNW 04:39:00 10° SSW
BREEZE-M DEB (TANK) 2.7 04:34:15 67° E 04:34:15 67° E 04:37:52 10° E
Uosat 12 SS-18 rocket 4.5 04:32:43 49° NW 04:34:11 86° SW 04:40:14 10° SSE
FENGYUN 3A 3.6 04:29:01 10° N 04:34:19 56° WNW 04:36:30 33° SW
Meteor 1-27 Rocket 3.9 04:29:38 10° N 04:35:30 80° E 04:41:25 10° SSE
Cosmos 1844 4.2 04:37:52 39° NW 04:37:52 39° NW 04:42:33 10° NNE
Cosmos 468 4.5 04:35:53 27° NNW 04:38:47 82° ENE 04:44:00 10° SSE
H-2A R/B 4.2 04:36:31 10° NNE 04:40:11 38° E 04:43:46 10° SSE
ATLAS 2AS CENTAUR R/B 3.8 04:39:48 28° NW 04:41:11 30° NNW 04:47:50 10° NNE
Cosmos 1356 3.7 04:40:27 10° S 04:43:50 67° E 04:47:15 10° NNE
Meteor 1-10 Rocket 4.2 04:41:22 31° NNW 04:43:51 56° W 04:49:22 10° S
Cosmos 1610 Rocket 4.4 04:40:02 10° SSW 04:46:23 69° W 04:52:46 10° N
SKYMED 2 3.4 04:42:49 10° S 04:47:08 69° WSW 04:48:45 37° NNW
METEOR-M 4.2 04:43:58 10° N 04:49:09 52° WNW 04:54:19 10° SW
SJ-12 3.7 04:46:54 10° N 04:50:57 67° WNW 04:54:58 10° SSW
Cosmos 372 Rocket 4.1 04:49:28 34° WSW 04:51:13 49° WNW 04:56:11 10° NNE
Cosmos 1707 Rocket 3.6 04:47:28 13° N 04:51:16 78° E 04:55:35 10° SSE
Cosmos 2150 Rocket 3.9 04:46:24 10° SSW 04:51:42 86° WNW 04:56:57 10° NNE
COSMOS 2455 3.0 04:49:18 32° WSW 04:51:44 49° NW 04:57:36 10° NNE
CZ-2C R/B 3.3 04:50:56 12° SSW 04:51:50 13° S 04:53:33 10° SSE
Cosmos 2154 Rocket 4.0 04:48:34 10° SSW 04:54:43 60° WNW 05:00:58 10° N
Cosmos 2298 Rocket 3.9 04:49:58 10° SSW 04:55:14 75° WNW 05:00:34 10° NNE
PSLV R/B 3.8 04:53:14 10° S 04:57:20 75° WSW 04:59:50 23° NNW
ALOS 3.9 04:55:21 10° N 04:56:56 19° NNW 04:56:56 19° NNW
Sich 1 2.9 04:55:46 10° SSW 05:00:11 69° W 05:04:37 10° N
ERS-2 4.1 04:58:03 10° SSW 04:59:08 17° SW 04:59:08 17° SW
Cosmos 1295 Rocket 4.4 04:55:23 10° SSW 05:01:24 64° W 05:07:29 10° N
Cosmos 1833 Rocket 2.6 04:57:52 19° NNW 05:02:04 84° WSW 05:07:40 10° SSE
SL-8 Rocket 4.3 04:57:11 10° S 05:03:16 69° E 05:09:26 10° NNE
SL-24 DEB 4.3 05:02:33 10° S 05:07:20 85° E 05:12:09 10° N
Cosmos 2082 Rocket 2.6 05:01:52 11° NNW 05:07:23 64° ENE 05:13:03 10° SE
SL-4 R/B 1.8 05:06:43 40° W 05:07:56 66° SSW 05:11:34 10° SE
EXPRESS MD2 4.0 05:07:41 33° W 05:09:20 56° SSW 05:16:13 10° SE
USA 290 3.1 05:07:39 18° N 05:09:50 49° ENE 05:12:58 10° SE
Cosmos 2228 Rocket 4.2 05:11:09 24° WSW 05:11:09 24° WSW 05:13:53 10° SW
Cosmos 1437 Rocket 3.8 05:12:49 25° WSW 05:12:49 25° WSW 05:15:19 10° SSW
Lacrosse 5 3.4 05:12:41 18° NNW 05:14:40 22° N 05:18:38 10° NE
EO 1 Delta rocket 3.9 05:12:31 10° S 05:17:06 51° W 05:21:40 10° NNW
Cosmos 1470 Rocket 4.3 05:13:33 10° S 05:17:49 54° E 05:22:05 10° NNE
Cosmos 1818 4.2 05:12:54 10° SSW 05:18:12 60° ESE 05:23:35 10° NE
Meteor 1-25 Rocket 4.3 05:15:13 10° S 05:20:45 78° E 05:26:20 10° NNE
Cosmos 2341 Rocket 3.9 05:15:12 10° SSW 05:21:22 69° W 05:27:37 10° N
ERBS 4.2 05:21:36 15° NNW 05:23:17 21° NNE 05:25:53 10° ENE
ATLAS 3B R/B 4.4 05:23:49 12° WSW 05:23:49 12° WSW 05:25:57 10° SW
Meteor 2-12 Rocket 4.5 05:18:06 10° SSW 05:24:08 59° WNW 05:30:15 10° N
USA 307 3.4 05:22:34 24° WNW 05:24:47 47° SW 05:28:55 10° SSE
Meteor PRIRODA 4.2 05:22:58 10° N 05:26:25 36° WNW 05:29:51 10° SW
CZ-4B R/B 3.6 05:24:27 10° N 05:28:31 36° WNW 05:32:26 10° SW
NOSS 2-1 (C) 3.8 05:26:22 10° SSW 05:29:37 51° SE 05:32:58 10° NE
USA 308 3.5 05:28:59 21° WNW 05:31:25 42° SW 05:35:28 10° SSE
SJ-7 4.4 05:28:56 10° N 05:33:02 66° WNW 05:37:09 10° SSW
Cosmos 2278 Rocket 2.3 05:29:13 10° SW 05:34:45 56° WNW 05:40:21 10° NNE
CZ-4C R/B 3.8 05:32:19 15° NW 05:34:54 19° NNW 05:39:22 10° NNE
NOSS 2-1 (D) 3.4 05:31:50 10° SSW 05:35:08 60° SE 05:38:32 10° NE
COSMO-SKYMED 1 3.8 05:32:01 10° SW 05:35:25 22° W 05:37:21 17° WNW
FALCON 9 DEB 4.4 05:35:47 17° NW 05:37:35 27° NNE 05:40:23 10° ENE
Okean O Rocket 2.6 05:33:53 10° NNE 05:38:16 52° E 05:42:36 10° S
Cosmos 1862 Rocket 3.5 05:34:13 10° NNW 05:38:37 66° W 05:42:57 10° S
Envisat 2.9 05:34:03 10° N 05:39:09 78° WNW 05:44:13 10° SSW
NOAA 6 4.0 05:37:27 10° NNE 05:42:36 82° WNW 05:47:43 10° SSW
YAOGAN 6 2.5 05:41:00 10° N 05:44:25 56° WNW 05:47:49 10° SSW
Cosmos 494 Rocket 4.4 05:39:50 10° NW 05:44:39 41° WSW 05:49:25 10° S
Cosmos 1515 3.6 05:41:52 10° N 05:45:41 87° W 05:49:28 10° S
Cosmos 1844 Rocket 4.3 05:44:24 13° NW 05:45:42 14° NW 05:48:33 10° N
Cosmos 1933 Rocket 3.8 05:42:52 10° S 05:47:17 76° E 05:51:45 10° NNE
SMAP 3.3 05:43:01 10° NNE 05:47:42 77° ESE 05:52:21 10° S
Cosmos 1666 Rocket 4.2 05:44:34 10° SW 05:48:30 33° WNW 05:52:29 10° N
Cosmos 1500 4.0 05:45:16 10° S 05:48:54 53° E 05:52:35 10° NNE
COSMOS 2406 4.1 05:44:31 12° NW 05:49:06 30° WSW 05:54:03 10° SSW
Cosmos 1943 Rocket 4.0 05:46:21 10° S 05:51:16 34° ESE 05:56:12 10° NE
Cosmos 1689 Rocket 4.2 05:51:19 10° WSW 05:51:47 11° W 05:51:47 11° W
BREEZE-M (TANK) 2.7 05:46:31 10° WSW 05:53:07 73° SSE 05:55:33 10° ENE
USA 305 4.2 05:53:05 12° WNW 05:56:17 27° SW 05:59:53 10° S
Cosmos 1242 Rocket 3.4 05:56:22 10° NNW 05:59:38 31° W 06:02:55 10° SSW
H-2A R/B 2.4 05:56:24 10° N 06:00:07 51° WNW 06:03:52 10° SSW
Meteor 2-4 Rocket 4.0 05:54:57 10° N 06:00:47 74° ENE 06:06:23 10° SSE
Cosmos 1271 Rocket 3.1 05:57:07 10° N 06:00:58 68° ENE 06:04:51 10° SSE
ATLAS 5 CENTAUR R/B 2.8 05:59:00 10° W 06:02:21 22° NNW 06:06:03 10° NNE
MOS 1 Rocket 4.3 05:59:30 10° SSW 06:03:56 31° W 06:08:36 10° NNW
USA 306 4.4 06:01:40 10° WNW 06:05:04 23° SW 06:08:28 10° S
CZ-2C R/B 2.6 05:59:56 10° S 06:05:21 77° WSW 06:10:40 10° NNW
BREEZE-M R/B 4.2 05:56:10 10° WSW 06:06:18 80° SSE 06:10:53 10° ENE
Cosmos 2366 rocket 4.2 06:01:25 10° SSW 06:07:30 51° WNW 06:13:35 10° N
USA 234 4.5 06:01:29 10° ENE 06:07:46 48° SE 06:14:01 10° SSW
Cosmos 1633 Rocket 4.0 06:04:50 10° SW 06:08:33 26° WNW 06:12:17 10° NNW
Cosmos 2251 Rocket 4.4 06:04:04 10° NNW 06:09:10 48° ENE 06:14:14 10° SE
USA 229 DEB 4.0 06:02:32 10° NW 06:09:54 87° NE 06:17:39 10° SE
USA 229 4.0 06:02:40 10° NW 06:10:00 87° NE 06:17:44 10° SE
NOAA 12 4.1 06:05:27 10° N 06:10:43 75° WNW 06:15:56 10° SSW
Okean 1-7 3.0 06:06:56 10° N 06:11:14 89° E 06:15:29 10° S
Cosmos 2218 Rocket 4.3 06:07:23 10° SSW 06:13:17 44° WNW 06:19:11 10° N
FALCON 9 DEB 3.9 06:10:35 10° NW 06:13:38 38° NNE 06:16:41 10° E
H-2A R/B 4.2 06:11:21 10° NNW 06:14:04 18° WNW 06:16:43 10° WSW
Cosmos 1125 Rocket 4.4 06:10:07 10° WSW 06:14:29 26° WNW 06:18:52 10° N
CORIOLIS 4.2 06:10:11 10° NNE 06:15:39 80° WNW 06:21:04 10° SSW
NOSS 3-1 (C) 4.2 06:11:18 10° NW 06:18:51 71° WSW 06:27:32 10° SSE
